EW1669 Weather Reports


Display with metric or nautical units.
time (UTC)temp
F
wind
direction
speed
MPH
gust
MPH
rain 1hr
in
rain 24hr
in
rain mn
in
humidity
%
barometer
mb
20220119190853 35 29 1.0 15.0 0.00 0.00 0.00 50 871.4
20220119190353 35 29 1.0 15.0 0.00 0.00 0.00 50 871.4
20220119185834 34 60 1.0 17.0 0.00 0.00 0.00 52 871.4
20220119185316 34 26 0.0 17.0 0.00 0.00 0.00 52 871.4
20220119184748 34 25 2.0 10.0 0.00 0.00 0.00 53 871.7
20220119184254 34 13 1.0 8.0 0.00 0.00 0.00 54 871.4
20220119183741 33 59 0.0 8.0 0.00 0.00 0.00 56 871.4
20220119183240 33 30 0.0 10.0 0.00 0.00 0.00 56 871.4
20220119182740 33 16 0.0 10.0 0.00 0.00 0.00 58 871.7
20220119182242 32 6 0.0 13.0 0.00 0.00 0.00 59 871.4
20220119181739 32 92 2.0 13.0 0.00 0.00 0.00 62 872.0
20220119181204 32 45 2.0 13.0 0.00 0.00 0.00 63 872.0
20220119180649 32 30 2.0 15.0 0.00 0.00 0.00 63 872.0
20220119180121 32 45 11.0 15.0 0.00 0.00 0.00 63 872.0
20220119175605 32 33 2.0 15.0 0.00 0.00 0.00 64 872.0
20220119175022 32 36 1.0 15.0 0.00 0.00 0.00 66 871.7
20220119174515 32 34 2.0 15.0 0.00 0.00 0.00 68 872.0
20220119173953 32 11 0.0 10.0 0.00 0.00 0.00 70 872.0
20220119173447 32 31 1.0 10.0 0.00 0.00 0.00 72 872.0
20220119172907 32 22 2.0 20.0 0.00 0.00 0.00 72 872.0
20220119172316 32 3 12.0 20.0 0.00 0.00 0.00 73 871.7
20220119171816 32 10 0.0 17.0 0.00 0.00 0.00 73 872.0
20220119171240 32 36 6.0 15.0 0.00 0.00 0.00 73 872.0
20220119170740 33 358 0.0 13.0 0.00 0.00 0.00 73 872.0
20220119170240 33 47 3.0 10.0 0.00 0.00 0.00 73 871.7
20220119165738 33 18 1.0 13.0 0.00 0.00 0.00 71 872.0
20220119165239 33 67 0.0 13.0 0.00 0.00 0.00 71 871.7
20220119164739 33 16 0.0 15.0 0.00 0.00 0.00 71 871.4
20220119164238 33 28 1.0 15.0 0.00 0.00 0.00 71 871.4
20220119163722 33 31 0.0 15.0 0.00 0.00 0.00 71 871.4
20220119163207 33 12 0.0 20.0 0.00 0.00 0.00 72 871.0
20220119162648 33 20 3.0 28.0 0.00 0.00 0.00 72 870.7
20220119162148 33 69 0.0 28.0 0.00 0.00 0.00 72 870.7
20220119161641 33 48 6.0 15.0 0.00 0.00 0.00 71 870.3
20220119161113 34 23 2.0 15.0 0.00 0.00 0.00 71 870.7
20220119160605 34 18 0.0 15.0 0.00 0.00 0.00 70 870.7
20220119160102 34 66 0.0 13.0 0.00 0.00 0.00 69 871.0
20220119155554 34 63 6.0 13.0 0.00 0.00 0.00 69 870.7
20220119155048 34 32 0.0 8.0 0.00 0.00 0.00 69 870.3
20220119154516 34 10 0.0 15.0 0.00 0.00 0.00 67 869.7
20220119153953 34 34 1.0 15.0 0.00 0.00 0.00 68 869.7
20220119153446 34 19 0.0 15.0 0.00 0.00 0.00 69 869.3
20220119152946 33 20 1.0 17.0 0.00 0.00 0.00 69 869.3
20220119152416 33 44 8.0 28.0 0.00 0.00 0.00 69 869.0
20220119151908 33 47 21.0 28.0 0.00 0.00 0.00 69 868.6
20220119151331 33 23 7.0 23.0 0.00 0.00 0.00 70 868.6
20220119150815 33 40 12.0 23.0 0.00 0.00 0.00 69 868.6
20220119150315 33 26 14.0 23.0 0.00 0.00 0.00 68 868.3
20220119145809 33 30 0.0 20.0 0.00 0.00 0.00 69 868.3
20220119145237 33 56 3.0 20.0 0.00 0.00 0.00 67 868.0
20220119144737 33 14 0.0 17.0 0.00 0.00 0.00 66 868.0
20220119144205 33 17 0.0 17.0 0.00 0.00 0.00 66 867.6
20220119143648 33 7 1.0 17.0 0.00 0.00 0.00 66 868.0
20220119143108 33 34 0.0 17.0 0.00 0.00 0.00 65 867.6
20220119142548 33 22 10.0 20.0 0.00 0.00 0.00 64 867.3
20220119142015 33 26 10.0 20.0 0.00 0.00 0.00 63 867.3
20220119141455 33 42 0.0 13.0 0.00 0.00 0.00 61 867.3
20220119140953 33 359 0.0 23.0 0.00 0.00 0.00 60 867.3
20220119140423 33 18 0.0 23.0 0.00 0.00 0.00 60 867.3
20220119135921 33 36 7.0 13.0 0.00 0.00 0.00 58 867.0
20220119135353 33 54 0.0 17.0 0.00 0.00 0.00 56 867.0
20220119134848 34 11 8.0 17.0 0.00 0.00 0.00 55 866.6
20220119134343 34 16 0.0 13.0 0.00 0.00 0.00 53 866.6
20220119133811 34 25 0.0 13.0 0.00 0.00 0.00 51 866.6
20220119133240 34 27 5.0 13.0 0.00 0.00 0.00 50 866.3
20220119132715 34 23 1.0 13.0 0.00 0.00 0.00 49 865.9
20220119132216 34 347 1.0 17.0 0.00 0.00 0.00 46 865.9
20220119131712 35 42 0.0 17.0 0.00 0.00 0.00 45 865.9
20220119131201 35 13 0.0 15.0 0.00 0.00 0.00 44 865.3
20220119130655 35 33 0.0 15.0 0.00 0.00 0.00 42 865.3
20220119130148 35 37 0.0 13.0 0.00 0.00 0.00 41 865.3
20220119125621 35 31 0.0 10.0 0.00 0.00 0.00 40 864.9
20220119125053 35 17 1.0 13.0 0.00 0.00 0.00 39 864.9
20220119124553 36 41 1.0 13.0 0.00 0.00 0.00 39 864.6
20220119124046 36 7 2.0 10.0 0.00 0.00 0.00 38 864.2
20220119123515 36 34 0.0 13.0 0.00 0.00 0.00 37 864.2
20220119122946 36 10 0.0 10.0 0.00 0.00 0.00 37 864.2
20220119122416 36 34 0.0 10.0 0.00 0.00 0.00 36 863.9
20220119121909 35 26 0.0 10.0 0.00 0.00 0.00 36 863.6
20220119121335 35 14 0.0 5.0 0.00 0.00 0.00 35 863.6
20220119120809 35 32 0.0 8.0 0.00 0.00 0.00 34 863.9
20220119120241 35 4 0.0 2.0 0.00 0.00 0.00 33 863.6
20220119115715 35 353 0.0 2.0 0.00 0.00 0.00 33 863.6
20220119115153 35 16 0.0 0.0 0.00 0.00 0.00 34 863.6
20220119114645 35 0 0.0 0.0 0.00 0.00 0.00 35 863.6
20220119114121 35 344 0.0 0.0 0.00 0.00 0.00 38 863.2
20220119113604 35 326 0.0 0.0 0.00 0.00 0.00 41 863.2
20220119113048 36 337 0.0 0.0 0.00 0.00 0.00 47 862.9
20220119112509 36 296 0.0 0.0 0.00 0.00 0.00 51 862.9
20220119112001 37 7 0.0 0.0 0.00 0.00 0.00 55 862.9
20220119111422 37 351 0.0 0.0 0.00 0.00 0.00 56 862.9
20220119110854 38 336 0.0 2.0 0.00 0.00 0.00 58 862.6
20220119110348 38 296 0.0 2.0 0.00 0.00 0.00 58 862.6
20220119105808 38 13 0.0 0.0 0.00 0.00 0.00 62 862.6
20220119105236 39 353 0.0 0.0 0.00 0.00 0.00 62 862.6
20220119104715 39 350 0.0 0.0 0.00 0.00 0.00 62 862.2
20220119104202 39 204 0.0 0.0 0.00 0.00 0.00 62 862.2
20220119103647 40 285 0.0 0.0 0.00 0.00 0.00 61 862.2
20220119103121 40 287 0.0 0.0 0.00 0.00 0.00 60 861.9
20220119102601 40 257 0.0 0.0 0.00 0.00 0.00 59 861.9
20220119102048 41 292 0.0 0.0 0.00 0.00 0.00 57 861.5
20220119101547 41 322 0.0 0.0 0.00 0.00 0.00 56 862.2
20220119101046 42 235 0.0 0.0 0.00 0.00 0.00 56 862.2
20220119100521 42 264 0.0 0.0 0.00 0.00 0.00 55 862.2
20220119100005 42 252 0.0 0.0 0.00 0.00 0.00 53 862.2
20220119095422 43 320 0.0 0.0 0.00 0.00 0.00 53 861.9
20220119094914 43 284 0.0 0.0 0.00 0.00 0.00 52 862.2
20220119094414 43 258 0.0 0.0 0.00 0.00 0.00 51 861.9
20220119093850 44 269 0.0 0.0 0.00 0.00 0.00 50 861.9
20220119093349 44 280 0.0 2.0 0.00 0.00 0.00 49 861.9
20220119092808 44 232 0.0 2.0 0.00 0.00 0.00 49 861.9
20220119092246 44 263 0.0 0.0 0.00 0.00 0.00 49 861.5
20220119091716 44 275 0.0 2.0 0.00 0.00 0.00 49 861.5
20220119091202 44 246 0.0 0.0 0.00 0.00 0.00 48 861.5
20220119090647 44 275 0.0 0.0 0.00 0.00 0.00 47 861.5
20220119090121 45 270 0.0 0.0 0.00 0.00 0.00 47 861.5
20220119085602 45 234 0.0 2.0 0.00 0.00 0.00 46 861.5
20220119085048 45 263 0.0 2.0 0.00 0.00 0.00 45 861.5
20220119084547 45 275 0.0 0.0 0.00 0.00 0.00 43 861.5
20220119084046 45 247 0.0 0.0 0.00 0.00 0.00 43 861.5
20220119083521 45 254 0.0 5.0 0.00 0.00 0.00 42 861.5
20220119082949 45 261 0.0 5.0 0.00 0.00 0.00 42 861.9
20220119082417 45 233 0.0 5.0 0.00 0.00 0.00 42 861.5
20220119081909 45 261 0.0 0.0 0.00 0.00 0.00 42 861.5
20220119081348 45 278 0.0 8.0 0.00 0.00 0.00 42 861.9
20220119080847 46 277 0.0 8.0 0.00 0.00 0.00 41 861.9
20220119080349 46 271 0.0 8.0 0.00 0.00 0.00 41 861.9
20220119075848 46 245 0.0 8.0 0.00 0.00 0.00 41 861.9
20220119075316 46 261 0.0 8.0 0.00 0.00 0.00 41 861.9
20220119074816 46 282 0.0 2.0 0.00 0.00 0.00 41 862.2
20220119074308 46 275 0.0 2.0 0.00 0.00 0.00 41 861.9
20220119073737 47 259 0.0 2.0 0.00 0.00 0.00 42 861.5
20220119073215 47 247 0.0 2.0 0.00 0.00 0.00 41 861.5
20220119072716 47 251 0.0 2.0 0.00 0.00 0.00 41 861.9
20220119072154 47 237 0.0 2.0 0.00 0.00 0.00 41 861.9
20220119071641 46 261 0.0 5.0 0.00 0.00 0.00 40 861.9
20220119071121 46 280 1.0 5.0 0.00 0.00 0.00 41 862.2
20220119070548 46 264 0.0 0.0 0.00 0.00 0.00 41 861.9
20220119070042 45 283 0.0 5.0 0.00 0.00 0.00 42 862.2
20220119065515 45 247 0.0 0.0 0.00 0.00 0.00 43 862.2
20220119064935 44 278 0.0 0.0 0.00 0.00 0.00 45 862.2
20220119064347 45 262 0.0 0.0 0.00 0.00 0.00 45 862.6
20220119063815 45 252 0.0 2.0 0.00 0.00 0.00 45 862.6
20220119063258 45 264 0.0 2.0 0.00 0.00 0.00 46 862.6
20220119062753 45 263 0.0 0.0 0.00 0.00 0.00 45 862.9
20220119062245 46 261 0.0 0.0 0.00 0.00 0.00 44 862.6
20220119061715 46 256 0.0 0.0 0.00 0.00 0.00 44 862.6
20220119061215 46 258 0.0 0.0 0.00 0.00 0.00 43 862.6
20220119060659 46 266 0.0 0.0 0.00 0.00 0.00 43 862.6
20220119060200 46 247 0.0 0.0 0.00 0.00 0.00 43 862.9
20220119055653 46 243 0.0 2.0 0.00 0.00 0.00 43 862.9
20220119055138 46 258 0.0 2.0 0.00 0.00 0.00 42 862.9
20220119054551 47 273 0.0 0.0 0.00 0.00 0.00 42 862.6
20220119054047 47 276 0.0 0.0 0.00 0.00 0.00 41 862.6
20220119053546 47 255 0.0 0.0 0.00 0.00 0.00 42 862.9
20220119053041 48 241 0.0 0.0 0.00 0.00 0.00 41 862.9
20220119052516 48 256 0.0 0.0 0.00 0.00 0.00 40 862.9
20220119052015 48 245 0.0 2.0 0.00 0.00 0.00 39 862.6
20220119051510 48 243 0.0 0.0 0.00 0.00 0.00 39 862.6
20220119050941 48 258 0.0 0.0 0.00 0.00 0.00 38 862.9
20220119050415 49 252 0.0 0.0 0.00 0.00 0.00 39 862.9
20220119045849 49 275 0.0 0.0 0.00 0.00 0.00 39 862.9
20220119045322 49 237 0.0 0.0 0.00 0.00 0.00 37 862.6
20220119044808 49 260 0.0 0.0 0.00 0.00 0.00 36 862.6
20220119044308 49 278 0.0 0.0 0.00 0.00 0.00 36 862.9
20220119043809 49 271 0.0 2.0 0.00 0.00 0.00 37 862.6
20220119043308 49 240 0.0 2.0 0.00 0.00 0.00 37 862.6
20220119042747 49 248 0.0 2.0 0.00 0.00 0.00 36 862.6
20220119042216 49 241 0.0 2.0 0.00 0.00 0.00 36 862.6
20220119041641 50 266 0.0 0.0 0.00 0.00 0.00 35 862.9
20220119041120 50 274 0.0 2.0 0.00 0.00 0.00 35 862.9
20220119040621 51 255 0.0 0.0 0.00 0.00 0.00 34 862.6
20220119040113 51 280 0.0 2.0 0.00 0.00 0.00 34 862.6
20220119035613 51 232 0.0 2.0 0.00 0.00 0.00 32 862.6
20220119035053 51 278 0.0 2.0 0.00 0.00 0.00 32 862.6
20220119034525 52 245 0.0 13.0 0.00 0.00 0.00 32 862.6
20220119034013 52 251 5.0 13.0 0.00 0.00 0.00 31 862.6
20220119033447 52 239 0.0 2.0 0.00 0.00 0.00 32 862.6
20220119032946 52 256 0.0 0.0 0.00 0.00 0.00 31 862.6
20220119032416 52 268 0.0 0.0 0.00 0.00 0.00 30 862.6
20220119031848 52 263 0.0 0.0 0.00 0.00 0.00 30 862.6
20220119031319 51 234 0.0 2.0 0.00 0.00 0.00 30 862.6
20220119030814 51 272 0.0 2.0 0.00 0.00 0.00 30 862.6
20220119030243 51 248 0.0 2.0 0.00 0.00 0.00 30 862.6
20220119025740 51 277 0.0 0.0 0.00 0.00 0.00 31 862.6
20220119025215 51 271 0.0 0.0 0.00 0.00 0.00 30 862.6
20220119024708 51 251 0.0 0.0 0.00 0.00 0.00 30 862.6
20220119024121 51 275 0.0 0.0 0.00 0.00 0.00 30 862.6
20220119023548 51 221 0.0 0.0 0.00 0.00 0.00 30 862.6
20220119023018 51 261 0.0 0.0 0.00 0.00 0.00 28 862.6
20220119022511 52 226 0.0 0.0 0.00 0.00 0.00 28 862.2
20220119022001 52 295 0.0 0.0 0.00 0.00 0.00 29 862.6
20220119021420 52 267 0.0 0.0 0.00 0.00 0.00 27 862.6
20220119020852 52 262 0.0 0.0 0.00 0.00 0.00 28 862.6
20220119020347 53 283 0.0 0.0 0.00 0.00 0.00 26 862.6
20220119015813 53 275 0.0 0.0 0.00 0.00 0.00 25 862.2
20220119015313 53 229 0.0 2.0 0.00 0.00 0.00 24 862.2
20220119014742 53 249 0.0 2.0 0.00 0.00 0.00 23 862.2
20220119014237 54 229 0.0 2.0 0.00 0.00 0.00 23 862.2
20220119013721 54 263 0.0 2.0 0.00 0.00 0.00 22 862.2
20220119013153 54 261 0.0 0.0 0.00 0.00 0.00 21 862.2
20220119012648 55 242 0.0 0.0 0.00 0.00 0.00 20 862.6
20220119012147 55 249 0.0 0.0 0.00 0.00 0.00 19 862.2
20220119011614 55 263 0.0 0.0 0.00 0.00 0.00 19 862.2
20220119011048 55 245 0.0 0.0 0.00 0.00 0.00 19 862.2
20220119010536 56 255 0.0 0.0 0.00 0.00 0.00 19 862.2
20220119010031 56 277 0.0 0.0 0.00 0.00 0.00 22 862.2
20220119005525 56 268 0.0 0.0 0.00 0.00 0.00 18 861.9
20220119005020 57 281 0.0 0.0 0.00 0.00 0.00 21 861.9
20220119004513 57 281 0.0 0.0 0.00 0.00 0.00 20 861.9
20220119004007 58 256 0.0 0.0 0.00 0.00 0.00 20 861.5
20220119003500 58 270 0.0 0.0 0.00 0.00 0.00 20 861.5
20220119002956 58 247 0.0 0.0 0.00 0.00 0.00 19 861.5
20220119002449 59 285 0.0 0.0 0.00 0.00 0.00 19 861.9
20220119001944 59 255 0.0 0.0 0.00 0.00 0.00 20 861.5
20220119001438 60 260 0.0 0.0 0.00 0.00 0.00 18 861.5
20220119000932 61 274 0.0 0.0 0.00 0.00 0.00 18 861.5
20220119000427 61 278 0.0 0.0 0.00 0.00 0.00 17 861.5
20220118235922 62 262 0.0 0.0 0.00 0.00 0.00 18 861.2
20220118235416 63 257 0.0 0.0 0.00 0.00 0.00 16 861.2
20220118234911 64 265 0.0 0.0 0.00 0.00 0.00 16 861.2
20220118234404 64 223 0.0 0.0 0.00 0.00 0.00 16 861.2
20220118233858 65 238 0.0 0.0 0.00 0.00 0.00 15 861.2
20220118233352 65 246 0.0 2.0 0.00 0.00 0.00 14 861.2
20220118232846 65 237 0.0 2.0 0.00 0.00 0.00 20 860.9
20220118232341 66 255 0.0 5.0 0.00 0.00 0.00 19 861.2
20220118231835 66 268 0.0 5.0 0.00 0.00 0.00 18 861.2
20220118231330 67 226 0.0 0.0 0.00 0.00 0.00 19 860.9
20220118230824 67 251 0.0 0.0 0.00 0.00 0.00 18 860.9
20220118230318 67 267 0.0 5.0 0.00 0.00 0.00 17 860.9
20220118225750 67 276 0.0 5.0 0.00 0.00 0.00 18 860.9
20220118225246 67 265 0.0 0.0 0.00 0.00 0.00 18 860.9
20220118224740 67 276 0.0 0.0 0.00 0.00 0.00 17 860.9
20220118224234 67 258 0.0 2.0 0.00 0.00 0.00 19 861.2
20220118223729 67 288 0.0 2.0 0.00 0.00 0.00 19 860.9
20220118223223 67 237 0.0 2.0 0.00 0.00 0.00 19 860.9
20220118222716 68 175 0.0 2.0 0.00 0.00 0.00 18 860.9
20220118222211 68 236 0.0 0.0 0.00 0.00 0.00 18 860.9
20220118221706 68 264 0.0 0.0 0.00 0.00 0.00 18 860.5
20220118221201 68 256 0.0 0.0 0.00 0.00 0.00 17 860.5
20220118220655 68 274 0.0 0.0 0.00 0.00 0.00 18 860.5
20220118220150 68 267 0.0 0.0 0.00 0.00 0.00 17 860.5
20220118215644 68 235 0.0 0.0 0.00 0.00 0.00 18 860.5
20220118215138 68 258 0.0 0.0 0.00 0.00 0.00 17 860.5
20220118214633 68 219 0.0 0.0 0.00 0.00 0.00 17 860.5
20220118214128 68 192 0.0 2.0 0.00 0.00 0.00 18 860.9
20220118213622 68 280 0.0 5.0 0.00 0.00 0.00 17 860.5
20220118213117 68 275 0.0 5.0 0.00 0.00 0.00 17 860.9
20220118212611 68 261 0.0 2.0 0.00 0.00 0.00 17 860.5
20220118212105 68 278 0.0 2.0 0.00 0.00 0.00 18 860.5
20220118211600 68 286 0.0 0.0 0.00 0.00 0.00 18 860.5
20220118211054 68 241 0.0 0.0 0.00 0.00 0.00 18 860.9
20220118210548 68 251 0.0 0.0 0.00 0.00 0.00 17 860.9
20220118210045 67 338 0.0 2.0 0.00 0.00 0.00 17 860.9
20220118205539 67 285 0.0 2.0 0.00 0.00 0.00 17 860.9
20220118205033 67 232 0.0 8.0 0.00 0.00 0.00 16 860.9
20220118204527 67 9 0.0 10.0 0.00 0.00 0.00 18 860.9
20220118204021 67 270 0.0 10.0 0.00 0.00 0.00 19 860.9
20220118203516 67 280 0.0 2.0 0.00 0.00 0.00 18 860.9
20220118203011 67 256 0.0 2.0 0.00 0.00 0.00 18 860.9
20220118202505 67 284 0.0 2.0 0.00 0.00 0.00 19 860.9
20220118201959 67 245 0.0 2.0 0.00 0.00 0.00 18 861.2
20220118201454 67 260 0.0 2.0 0.00 0.00 0.00 18 861.2
20220118200949 66 282 0.0 2.0 0.00 0.00 0.00 18 860.9
20220118200443 66 275 0.0 2.0 0.00 0.00 0.00 18 861.2
20220118195937 66 293 0.0 0.0 0.00 0.00 0.00 18 861.5
20220118195431 65 318 0.0 0.0 0.00 0.00 0.00 18 861.2
20220118194927 65 229 0.0 5.0 0.00 0.00 0.00 18 861.2
20220118194420 65 225 0.0 5.0 0.00 0.00 0.00 20 861.5
20220118193914 65 281 0.0 5.0 0.00 0.00 0.00 20 861.2
20220118193408 65 232 0.0 5.0 0.00 0.00 0.00 20 861.5
20220118192902 64 265 0.0 10.0 0.00 0.00 0.00 19 861.5
20220118192357 64 274 0.0 10.0 0.00 0.00 0.00 18 861.5
20220118191851 64 274 0.0 0.0 0.00 0.00 0.00 20 861.5
20220118191345 64 254 0.0 0.0 0.00 0.00 0.00 20 861.5